Location: ??
(35.5653°N, 139.6194°E)
Time: 07:51:12
(UTC+00:00)

Tsikada Rocket - Pass Details

Date: 20 November 2019
Orbit: 958 x 1009 km, 82.9° (Epoch: 14 December)

Event Time Altitude Azimuth Distance (km) Brightness Sun altitude
Rises 20:01:21 0° 354° (N) 3,731 6.9 -16.4°
Reaches altitude 10° 20:03:54 10° 355° (N) 2,772 6.2 -15.9°
Maximum altitude 20:10:17 84° 84° (E) 999 4.1 -14.7°
Drops below altitude 10° 20:16:32 10° 173° (S) 2,721 6.6 -13.4°
Sets 20:19:01 0° 174° (S) 3,658 7.3 -12.9°
